Location: Unspecified
(0.0000°N, 0.0000°E)
Time: 23:25:13
(UTC+00:00)

deb r/b Ablestar - Pass Details

Date: 25 September 2024
Orbit: 702 x 890 km, 66.9° (Epoch: 02 October)

Event Time Altitude Azimuth Distance (km) Brightness Sun altitude
Exits shadow 04:29:55 12° 205° (SSW) 2,069 ? -20.4°
Drops below altitude 10° 04:30:30 10° 200° (SSW) 2,231 ? -20.3°
Sets 04:33:26 0° 185° (S) 3,186 ? -19.5°
